Tracking 35275 objects as of 8-Sep-2026
HD Live streaming from Space Station
objects crossing your sky now

COSMOS 1813 DEB


COSMOS 1813 DEB is no longer on orbit


NORAD ID: 18058
Int'l Code: 1987-004FM
Launch date: January 15, 1987
Source: Commonwealth of Independent States (former USSR) (CIS)
Launch site: PLESETSK MISSILE AND SPACE COMPLEX (PKMTR)
Decay date: 1988-09-19

Note: This is SATELLITE DEBRIS
Your satellite tracking list
Your tracking list is empty




NASA's NSSDC Master Catalog

Two Line Element Set (TLE):
1 18058U 87004 FM 88262.52638202  .02166841 +84000-5 +40485-3 0  9994
2 18058 072.7814 247.9065 0011683 249.1627 119.6517 16.31786202089818
Source of the keplerian elements: AFSPC